Lid_Strength_Index
15 17 19 17 15 16 17 18 18 18 15 16 16 15 14 13 15 15 14 13 13 12 9 10 11 11 11 11 11 11 11 11 12 14 15 15 15 15 15 15 14 14 13 12
16 18 16 15 14 15 17 18 19 18 16 16 18 17 16 15 14 14 13 13 13 12 14 11 11 11 11 11 11 11 11 12 12 12 13 14 15 15 15 15 15 14 13 12
18 17 15 15 16 16 17 17 18 18 18 18 20 19 18 17 15 14 14 12 13 14 14 13 12 11 11 11 11 11 12 12 12 13 14 15 16 16 17 17 16 15 13 12
17 16 17 17 17 16 19 17 17 18 19 21 20 23 21 17 16 16 15 17 16 16 15 14 13 13 11 11 11 11 12 13 13 13 14 15 15 17 16 16 16 16 14 12
18 18 18 17 17 15 17 16 17 18 20 21 22 22 22 20 18 15 16 16 17 17 17 15 13 12 12 12 12 13 13 13 13 14 14 14 15 15 16 16 16 16 15 13
17 17 17 16 17 15 16 18 18 19 21 27 22 21 21 20 17 17 17 17 16 17 16 15 13 13 14 14 14 14 14 14 14 14 14 14 15 15 16 16 16 16 17 15
18 18 18 17 18 16 17 18 22 24 27 25 23 22 18 17 17 16 17 16 16 16 16 14 14 14 14 15 15 15 14 15 14 14 14 14 14 15 15 16 16 16 17 15
19 20 19 17 17 18 19 18 21 25 26 24 22 23 20 17 17 16 16 17 17 17 16 14 14 14 15 15 15 14 15 15 15 14 14 14 14 14 15 15 15 15 16 15
20 19 19 18 18 17 18 20 17 22 26 26 22 21 17 17 18 17 17 17 16 16 16 16 14 14 15 15 15 15 15 14 15 14 14 14 14 14 15 14 14 15 15 15
16 21 20 19 18 19 18 18 21 21 27 28 23 23 20 19 18 18 17 17 16 16 16 15 15 15 14 15 15 15 15 14 14 14 14 14 14 14 14 14 15 15 15 14
16 17 21 19 21 20 20 20 20 19 20 23 26 22 18 17 17 18 17 16 16 16 15 16 15 16 15 15 15 15 15 14 15 14 14 15 15 14 14 14 15 15 15 15
15 16 22 21 21 20 20 19 19 21 23 23 23 22 18 17 17 17 17 15 16 16 15 16 16 16 16 15 15 16 15 15 14 13 14 14 15 14 14 14 15 15 15 15
15 18 22 20 21 21 22 20 18 18 19 23 22 21 18 18 17 16 16 16 16 16 16 16 16 17 16 16 15 15 15 15 15 14 14 14 14 14 14 13 14 14 14 15
11 18 21 22 20 20 22 21 18 19 22 22 21 21 19 18 17 16 15 17 17 16 16 17 17 17 17 16 15 15 15 15 15 15 15 15 14 14 13 13 14 14 14 16
13 18 23 21 19 20 20 21 19 19 19 20 19 19 17 17 16 15 15 16 16 16 17 18 18 18 17 17 16 15 15 15 15 15 15 15 14 14 14 14 14 14 14 15
15 19 21 24 18 19 20 20 20 19 18 18 19 20 17 16 15 14 15 15 15 17 17 18 17 17 17 17 17 16 15 16 15 15 15 15 15 15 14 14 14 15 15 15
15 17 19 22 18 17 20 19 21 20 20 19 21 18 15 15 14 13 14 15 16 17 17 18 18 18 18 18 17 17 16 15 15 16 16 15 15 15 15 14 15 15 15 15
17 17 16 20 20 23 19 18 17 17 15 17 15 15 15 14 14 15 17 17 17 18 18 19 19 19 19 19 18 17 15 15 15 16 15 16 16 16 16 15 15 15 15 16
13 15 17 19 21 19 17 18 19 19 18 14 15 14 14 15 17 18 18 18 18 19 19 20 20 20 20 20 19 17 16 15 15 16 16 16 16 16 17 17 17 17 17 17
13 13 15 17 20 25 20 17 16 17 22 15 15 15 15 16 18 17 19 18 19 20 20 21 21 21 21 21 19 18 18 18 19 17 16 16 16 16 17 18 18 18 17 17
18 14 16 16 17 19 17 15 14 19 19 15 15 15 15 16 16 18 18 20 20 21 21 22 22 22 23 21 20 20 20 21 20 19 18 17 17 17 17 18 19 18 16 16
20 21 21 19 18 19 14 14 16 14 13 14 14 14 15 15 17 18 18 20 20 22 22 22 23 23 24 23 21 22 21 20 21 19 19 19 18 17 17 18 19 19 18 18
19 16 17 15 17 13 13 13 12 12 13 13 13 12 13 14 15 17 19 20 24 24 22 23 24 25 27 25 23 23 21 21 21 21 20 20 19 18 18 19 19 19 19 19
19 15 14 16 14 13 11 11 11 12 12 11 11 11 11 13 14 15 18 20 21 22 24 24 24 25 26 25 23 23 21 22 21 21 21 21 20 19 19 18 19 19 20 21
15 16 18 16 13 13 12 11 11 11 11 11 11 11 12 13 14 16 17 19 21 22 23 24 24 25 25 24 24 23 22 21 22 21 21 21 20 20 20 20 20 20 20 19
13 15 15 16 12 12 13 12 13 12 13 13 13 13 12 13 14 16 17 19 21 22 23 24 25 25 25 24 24 23 22 21 21 21 21 21 20 20 19 19 19 15 16 16